User: anonymous   Login
Location: Unspecified
(0.0000°N, 0.0000°E)
Time: 23:02:27
(UTC+00:00)
Language:

VRSS-2 - Orbit

View from above orbital plane
View from above orbital plane
View from above satellite
View from above satellite

Ground track
Ground track

The orbit is defined by the following mean orbital elements,

1 42954U          26145.62355645 +.00000000 +00000-0 +12220-3 0 00001
2 42954  97.6530 184.3659 0017194 168.4146 191.7466 14.81151460    09
Epoch (UTC): 25 May 2026 14:57:55
Eccentricity: 0.0017194
inclination: 97.6530°
perigee height: 614 km
apogee height: 638 km
right ascension of ascending node: 184.3659°
argument of perigee: 168.4146°
revolutions per day: 14.81151460
mean anomaly at epoch: 191.7466°

The dashed part of the orbit path shows where the satellite is in the earth's shadow,  

DLR